Weather History for Comanche, TX

Change the Weather History Date:

Saturday, March 2, 2013

  Actual Average (KSEP) Record (KSEP)
Temperature  
Mean Temperature 45 °F -  
Max Temperature 60 °F 70 °F 86 °F (1983)
Min Temperature 30 °F 41 °F 11 °F (1980)
Degree Days  
Heating Degree Days 20    
Moisture  
Dew Point 29 °F    
Average Humidity 58    
Maximum Humidity 93    
Minimum Humidity 29    
Precipitation  
Precipitation 0.00 in - - ()
Sea Level Pressure  
Sea Level Pressure 30.33 in    
Wind  
Wind Speed 7 mph (NNW)    
Max Wind Speed 15 mph    
Max Gust Speed 22 mph    
Visibility 10 miles    
Events      
Averages and records for this station are not official NWS values.
T = Trace of Precipitation, MM = Missing Value Source: NWS Daily Summary

Daily Weather History Graph

Daily Weather History Graph

Search for Another Location

Airport:

Trip Planner

Search our weather history database for the weather conditions in past years. The results will help you decide how hot, cold, wet, or windy it might be!

Date:

Astronomy

Mar. 02, 2013 Rise Set
Actual Time 7:00 AM CST 6:33 PM CST
Civil Twilight 6:35 AM CST 6:57 PM CST
Nautical Twilight 6:07 AM CST 7:26 PM CST
Astronomical Twilight 5:39 AM CST 7:54 PM CST
Moon 11:51 PM CST (3/2) 9:50 AM CST (3/2)
Length of Visible Light 12h 22m
Length of Day
11h 33m
Waning Gibbous, 74% of the Moon is Illuminated
Mar 2
Waning Gibbous
Mar 4
Last Quarter
Mar 11
New
Mar 19
First Quarter
Mar 27
Full

Hourly Weather History & Observations

Time (CST) Temp. Windchill Dew Point Humidity Pressure Visibility Wind Dir Wind Speed Gust Speed Precip Events Conditions
12:15 AM 37.4 °F 33.8 °F 28.4 °F 70% 30.32 in 10.0 mi WNW 4.6 mph - N/A   Clear
12:35 AM 37.4 °F 32.1 °F 28.4 °F 70% 30.32 in 10.0 mi NW 6.9 mph - N/A   Clear
12:55 AM 35.6 °F 30.7 °F 28.4 °F 75% 30.33 in 10.0 mi NW 5.8 mph - N/A   Clear
1:15 AM 35.6 °F 29.2 °F 28.4 °F 75% 30.34 in 10.0 mi NW 8.1 mph - N/A   Clear
1:35 AM 35.6 °F 29.9 °F 28.4 °F 75% 30.34 in 10.0 mi NNW 6.9 mph - N/A   Clear
1:55 AM 35.6 °F 29.9 °F 28.4 °F 75% 30.34 in 10.0 mi NW 6.9 mph - N/A   Clear
2:15 AM 33.8 °F 28.6 °F 28.4 °F 81% 30.34 in 10.0 mi NW 5.8 mph - N/A   Clear
2:35 AM 33.8 °F 27.7 °F 28.4 °F 81% 30.34 in 10.0 mi NNW 6.9 mph - N/A   Clear
2:55 AM 33.8 °F 27.0 °F 28.4 °F 81% 30.34 in 10.0 mi NNW 8.1 mph - N/A   Clear
3:15 AM 35.6 °F 27.5 °F 28.4 °F 75% 30.34 in 10.0 mi North 11.5 mph - N/A   Clear
3:35 AM 35.6 °F 28.6 °F 28.4 °F 75% 30.35 in 10.0 mi NNW 9.2 mph - N/A   Clear
3:55 AM 33.8 °F 25.8 °F 28.4 °F 81% 30.35 in 10.0 mi North 10.4 mph - N/A   Clear
4:55 AM 32.0 °F 26.4 °F 28.4 °F 87% 30.38 in 10.0 mi NW 5.8 mph - N/A   Clear
5:15 AM 32.0 °F 28.7 °F 28.4 °F 87% 30.37 in 10.0 mi NW 3.5 mph - N/A   Clear
5:35 AM 32.0 °F 26.4 °F 28.4 °F 87% 30.37 in 10.0 mi NW 5.8 mph - N/A   Clear
5:55 AM 32.0 °F 25.6 °F 28.4 °F 87% 30.37 in 10.0 mi NW 6.9 mph - N/A   Clear
6:15 AM 32.0 °F 25.6 °F 28.4 °F 87% 30.38 in 10.0 mi NW 6.9 mph - N/A   Clear
6:35 AM 30.2 °F 21.9 °F 28.4 °F 93% 30.39 in 10.0 mi NNW 9.2 mph - N/A   Clear
6:55 AM 30.2 °F 24.3 °F 28.4 °F 93% 30.39 in 10.0 mi NNW 5.8 mph - N/A   Clear
7:15 AM 30.2 °F 25.4 °F 28.4 °F 93% 30.40 in 10.0 mi NW 4.6 mph - N/A   Clear
7:35 AM 30.2 °F 26.7 °F 28.4 °F 93% 30.41 in 10.0 mi NW 3.5 mph - N/A   Clear
7:55 AM 32.0 °F 27.5 °F 28.4 °F 87% 30.42 in 10.0 mi NW 4.6 mph - N/A   Clear
8:15 AM 32.0 °F 25.6 °F 28.4 °F 87% 30.42 in 10.0 mi NNW 6.9 mph - N/A   Clear
8:35 AM 33.8 °F 26.4 °F 30.2 °F 87% 30.43 in 10.0 mi NNW 9.2 mph - N/A   Clear
8:55 AM 35.6 °F 27.5 °F 30.2 °F 81% 30.44 in 10.0 mi North 11.5 mph - N/A   Clear
9:15 AM 37.4 °F 30.8 °F 30.2 °F 75% 30.44 in 10.0 mi North 9.2 mph - N/A   Clear
9:35 AM 39.2 °F 33.0 °F 30.2 °F 70% 30.44 in 10.0 mi North 9.2 mph - N/A   Clear
9:55 AM 41.0 °F 34.3 °F 28.4 °F 61% 30.44 in 10.0 mi North 11.5 mph - N/A   Clear
10:15 AM 41.0 °F 35.2 °F 30.2 °F 65% 30.43 in 10.0 mi North 9.2 mph - N/A   Clear
10:35 AM 42.8 °F 35.8 °F 30.2 °F 61% 30.43 in 10.0 mi North 13.8 mph 17.3 mph N/A   Clear
10:55 AM 44.6 °F 39.2 °F 30.2 °F 57% 30.43 in 10.0 mi North 10.4 mph 18.4 mph N/A   Clear
11:15 AM 46.4 °F 40.7 °F 28.4 °F 50% 30.42 in 10.0 mi North 12.7 mph 19.6 mph N/A   Clear
11:35 AM 46.4 °F 41.1 °F 26.6 °F 46% 30.42 in 10.0 mi NW 11.5 mph - N/A   Clear
11:55 AM 48.2 °F - 28.4 °F 46% 30.41 in 10.0 mi NNW 13.8 mph 20.7 mph N/A   Clear
12:15 PM 50.0 °F - 26.6 °F 40% 30.40 in 10.0 mi North 15.0 mph 19.6 mph N/A   Clear
12:35 PM 51.8 °F - 26.6 °F 38% 30.39 in 10.0 mi North 15.0 mph 18.4 mph N/A   Clear
12:55 PM 51.8 °F - 24.8 °F 35% 30.38 in 10.0 mi NNW 11.5 mph 17.3 mph N/A   Clear
1:15 PM 51.8 °F - 26.6 °F 38% 30.37 in 10.0 mi NW 10.4 mph 18.4 mph N/A   Clear
1:35 PM 53.6 °F - 26.6 °F 35% 30.35 in 10.0 mi NNW 10.4 mph 19.6 mph N/A   Clear
1:55 PM 53.6 °F - 26.6 °F 35% 30.33 in 10.0 mi NNW 6.9 mph 18.4 mph N/A   Clear
2:15 PM 55.4 °F - 26.6 °F 33% 30.32 in 10.0 mi NNW 10.4 mph - N/A   Clear
2:35 PM 55.4 °F - 26.6 °F 33% 30.31 in 10.0 mi NNW 12.7 mph 16.1 mph N/A   Clear
2:55 PM 57.2 °F - 26.6 °F 31% 30.30 in 10.0 mi North 10.4 mph 19.6 mph N/A   Clear
3:15 PM 57.2 °F - 26.6 °F 31% 30.29 in 10.0 mi NW 8.1 mph 21.9 mph N/A   Clear
3:35 PM 59.0 °F - 28.4 °F 31% 30.28 in 10.0 mi NNW 12.7 mph - N/A   Clear
3:55 PM 59.0 °F - 28.4 °F 31% 30.28 in 10.0 mi NNW 6.9 mph - N/A   Clear
4:15 PM 59.0 °F - 28.4 °F 31% 30.27 in 10.0 mi NNW 8.1 mph - N/A   Clear
4:35 PM 59.0 °F - 28.4 °F 31% 30.26 in 10.0 mi NNW 10.4 mph - N/A   Clear
4:55 PM 60.8 °F - 28.4 °F 29% 30.26 in 10.0 mi NW 9.2 mph - N/A   Clear
5:35 PM 60.8 °F - 28.4 °F 29% 30.25 in 10.0 mi NNW 8.1 mph - N/A   Clear
5:55 PM 59.0 °F - 28.4 °F 31% 30.25 in 10.0 mi NNW 6.9 mph - N/A   Clear
6:15 PM 59.0 °F - 28.4 °F 31% 30.25 in 10.0 mi Calm Calm - N/A   Clear
6:35 PM 57.2 °F - 28.4 °F 33% 30.25 in 10.0 mi North 3.5 mph - N/A   Clear
6:55 PM 55.4 °F - 28.4 °F 36% 30.25 in 10.0 mi Calm Calm - N/A   Clear
7:15 PM 55.4 °F - 28.4 °F 36% 30.25 in 10.0 mi Calm Calm - N/A   Clear
7:35 PM 53.6 °F - 28.4 °F 38% 30.25 in 10.0 mi Calm Calm - N/A   Clear
7:55 PM 51.8 °F - 30.2 °F 44% 30.24 in 10.0 mi SSE 4.6 mph - N/A   Clear
8:15 PM 51.8 °F - 30.2 °F 44% 30.24 in 10.0 mi SSE 4.6 mph - N/A   Clear
8:35 PM 50.0 °F - 30.2 °F 47% 30.24 in 10.0 mi SSE 3.5 mph - N/A   Clear
8:55 PM 50.0 °F - 30.2 °F 47% 30.24 in 10.0 mi South 3.5 mph - N/A   Clear
9:15 PM 46.4 °F 42.4 °F 30.2 °F 53% 30.24 in 10.0 mi SSW 8.1 mph - N/A   Clear
9:35 PM 44.6 °F 40.7 °F 30.2 °F 57% 30.23 in 10.0 mi South 6.9 mph - N/A   Clear
9:55 PM 44.6 °F 41.4 °F 30.2 °F 57% 30.24 in 10.0 mi South 5.8 mph - N/A   Clear
10:15 PM 46.4 °F 43.5 °F 30.2 °F 53% 30.24 in 10.0 mi South 5.8 mph - N/A   Clear
10:35 PM 46.4 °F 45.2 °F 30.2 °F 53% 30.23 in 10.0 mi South 3.5 mph - N/A   Clear
10:55 PM 44.6 °F 42.2 °F 30.2 °F 57% 30.23 in 10.0 mi South 4.6 mph - N/A   Clear
11:15 PM 44.6 °F 42.2 °F 30.2 °F 57% 30.22 in 10.0 mi SSE 4.6 mph - N/A   Clear
11:35 PM 44.6 °F 42.2 °F 30.2 °F 57% 30.22 in 10.0 mi SSE 4.6 mph - N/A   Clear
11:55 PM 42.8 °F 39.3 °F 30.2 °F 61% 30.22 in 10.0 mi SSE 5.8 mph - N/A   Clear